STARLINK-2466 (48125 NORAD) Tracking and Keplerian Element Data

This shows tracking and keplerian element data for the satellite.

Feedback or suggestion? Click here.




ElementValue
Catalog48125
NameSTARLINK-2466
Epoch Orbit195
Epoch Day170.58334491
Epoch Year2021
RAAN351.4174
Inclination53.051
Eccentricity0.0001434
Argument of Perigee90.8048
Mean Anonmoly89.4195
Mean Motion15.06322029
Decay Rate0.00119008
L11 48125U 21027AK 21170.58334491 .00119008 00000-0 78913-2 0 9999
L22 48125 53.0510 351.4174 0001434 90.8048 89.4195 15.06322029 1953

Live tracking and technical data element details for STARLINK-2466 (NORAD 48125). STARLINK-2466 can be tracked NOW for your location showing map with azimuth and elevation plus other details from your city location.

Track the satellite on the map from your city or location and see movement details for azimuth, elevation, latitude, longitude, range, height, and movement on the map or in text.







IsCatalogInMostPopularTable: catalog: 48125, numindb: 35
Update: records affected: 1



GetName: 48125 STARLINK-2466

Hit Count: updated at: Mon, 21 Jun 2021 03:54:45 GMT